Simultaneous Nadir Overpasses (SNOs) Predictions

Prediction of SNOs between NOAA-19 and TERRA Satellite Orbit:

Table of predicted SNOs for the next 14.0 days since TLE Epoch: 3/2/2024
Index Date (NOAA-19) Time (NOAA-19) Lat,Lon (NOAA-19) SZA (NOAA-19 ) Date (TERRA) Time (TERRA) Lat,Lon (TERRA) SZA (TERRA ) Distance(km) Time Diff (sec)
1 03/03/2024 15:11:57 -80.17, 154.71 92.84 03/03/2024 15:11:49 -80.18, 154.81 92.83 2.21 8
2 03/05/2024 18:11:09 -80.10, 108.98 93.78 03/05/2024 18:12:05 -80.10, 109.08 93.76 1.86 56
3 03/05/2024 19:02:08 80.19, -82.51 86.38 03/05/2024 19:01:23 80.19, -82.55 86.36 0.75 45
4 03/07/2024 22:01:20 80.12,-128.19 85.44 03/07/2024 22:01:38 80.13,-128.09 85.46 2.24 18
5 03/07/2024 22:52:12 -80.19, 40.05 94.45 03/07/2024 22:50:59 -80.19, 40.03 94.48 0.53 73
6 03/10/2024 01:51:24 -80.11, -5.76 95.41 03/10/2024 01:51:14 -80.12, -5.61 95.40 3.07 10
7 03/12/2024 04:50:35 -80.05, -51.28 96.34 03/12/2024 04:51:29 -80.04, -51.34 96.34 1.53 54
8 03/12/2024 05:41:35 80.14, 117.13 83.81 03/12/2024 05:40:47 80.13, 117.03 83.78 2.25 48
9 03/14/2024 08:40:46 80.08, 71.61 82.88 03/14/2024 08:41:01 80.07, 71.50 82.87 2.19 15



Historial Predications of SNOs between NOAA-19 and TERRA
